Location: *
(32.8140°S, 174.6161°E)
Time: 10:09:35
(UTC+00:00)

Cosmos 44 - Pass Details

Date: 10 December 2019
Orbit: 595 x 767 km, 65.1° (Epoch: 26 January)

Event Time Altitude Azimuth Distance (km) Brightness Sun altitude
Rises 15:38:34 0° 211° (SSW) 3,263 6.9 -16.0°
Reaches altitude 10° 15:41:01 10° 212° (SSW) 2,328 6.1 -15.6°
Maximum altitude 15:46:21 71° 295° (WNW) 805 3.4 -14.7°
Drops below altitude 10° 15:51:31 10° 19° (NNE) 2,245 5.7 -13.9°
Sets 15:53:50 0° 21° (NNE) 3,139 6.5 -13.5°
